Regional Weather Roundup
Issued by NWS Cleveland, OH

Home | Current Version | Previous Version | Text Only | Print | Product List | Glossary Off
Versions: 1 2 3 4 5 6 7 8 9 10 11 12 13 14 15 16 17 18 19 20 21 22 23 24 25 26 27 28 29 30 31 32 33 34 35 36 37 38 39 40 41 42 43 44 45 46 47 48 49 50

000
ASUS41 KCLE 220800
RWRCLE
OHIO REGIONAL WEATHER ROUNDUP
NATIONAL WEATHER SERVICE WILMINGTON, OH
400 AM EDT FRI AUG 22 2014

NOTE: "FAIR" INDICATES FEW OR NO CLOUDS BELOW 12,000 FEET WITH NO
SIGNIFICANT WEATHER AND/OR OBSTRUCTIONS TO VISIBILITY.

OHZ001>008-015>018-024>027-034-035-043-044-220900-
   NORTHWEST OHIO

CITY           SKY/WX    TMP DP  RH WIND       PRES   REMARKS
DEFIANCE       CLEAR     69  67  93 S3        29.96R FOG
FINDLAY        CLOUDY    72  69  90 SE5       29.96R
TOLEDO EXPRESS CLOUDY    70  69  97 CALM      29.94F
TOLEDO METCALF CLOUDY    71  68  90 S5        29.95F
LIMA           FOG       70  68  93 CALM      29.97R VSB 1/2
$$

OHZ009>014-019>023-028>033-038-089-220900-
   NORTHEAST OHIO

CITY           SKY/WX    TMP DP  RH WIND       PRES   REMARKS
CLE-HOPKINS    CLOUDY    70  67  90 S6        29.97F
CLE-LAKEFRONT  MOCLDY    73  67  81 S3        29.94F
CUY CO. ARPT   NOT AVBL
LORAIN-ELYRIA  MOCLDY    72  67  84 S3        29.97F
ASHTABULA      CLOUDY    69  68  96 CALM      29.97F FOG
AKRON-CANTON   MOCLDY    68  65  90 S5        29.98F
WOOSTER        MOCLDY    68  66  93 S3        29.98F
MANSFIELD      CLOUDY    70  69  97 S5        29.99S
YOUNGSTOWN     CLOUDY    69  67  93 CALM      29.98F FOG
$$

OHZ042-051>053-060>062-070>072-077>081-220900-
  SOUTHWEST OHIO

CITY           SKY/WX    TMP DP  RH WIND       PRES   REMARKS
CINC-COVINGTON CLOUDY    71  69  93 S7        30.00F
CINC-LUNKEN    CLOUDY    70  70 100 CALM      29.99F
HAMILTON       CLOUDY    71  70  96 CALM      29.99F FOG
DAYTON         NOT AVBL
WRIGHT-PAT AFB NOT AVBL
DAYTON GENERAL CLOUDY    70  68  93 S6        29.97F
WILMINGTON     CLOUDY    71  66  84 W7        29.98F
$$

OHZ036-037-039>041-045>050-054>059-063>069-073>076-082>088-220900-
  CENTRAL AND SOUTHEAST OHIO

CITY           SKY/WX    TMP DP  RH WIND       PRES   REMARKS
COLUMBUS       CLOUDY    71  67  87 W3        29.97F
OSU AIRPORT    CLOUDY    67  66  97 W3        29.97F
BOLTON FIELD   NOT AVBL
RICKENBACK AFB NOT AVBL
NEWARK         CLOUDY    70  68  93 CALM      29.97S
MARION         CLOUDY    71  69  93 S3        29.98S
LANCASTER      CLOUDY    70  67  90 SW3       29.98F
ZANESVILLE     LGT RAIN  70  67  90 CALM      29.98F
NEW PHILLY     RAIN      69  68  96 CALM      29.99S FOG
$$



USA.gov is the U.S. government's official web portal to all federal, state and local government web resources and services.